SCP
0 0 0 0 0 0 0 0 0 0 0 0 0 0 0 0 0 0 0 0 0 0 0 0 0 0 0 0 0 0 0 0 0 0 0 0 0 0 0 0 0 0 0
0 0 0 0 0 0 0 0 0 0 0 0 0 0 0 0 0 0 0 0 0 0 0 0 0 0 0 0 0 0 0 0 0 0 0 0 0 0 0 0 0 0 0
0 0 0 0 0 0 0 0 0 0 0 0 0 0 0 0 0 0 0 0 0 0 0 0 0 0 0 0 0 0 0 0 0 0 0 0 0 0 0 0 0 0 0
0 0 0 0 0 0 0 0 0 0 0 0 0 0 0 0 0 0 0 0 0 0 0 0 0 0 0 0 0 0 0 0 0 0 0 0 0 0 0 0 0 0 0
0 0 0 0 0 0 0 0 0 0 0 0 0 0 0 0 0 0 0 0 0 0 0 0 0 0 0 0 0 0 0 0 0 0 0 0 0 0 0 0 0 0 0
0 0 0 0 0 0 0 0 0 0 0 0 0 0 0 0 0 0 0 0 0 0 0 0 0 0 0 0 0 0 0 0 0 0 0 0 0 0 0 0 0 0 0
0 0 0 0 0 0 0 0 0 0 0 0 0 0 0 0 0 0 0 0 0 0 0 0 0 0 0 0 0 0 0 0 0 0 0 0 0 0 0 0 0 0 0
0 0 0 0 0 0 0 0 0 0 0 0 0 0 0 0 0 0 0 0 0 0 0 0 0 0 0 0 0 0 0 0 0 0 0 0 0 0 0 0 0 0 0
0 0 0 0 0 0 0 0 0 0 0 0 0 0 0 0 0 0 0 0 0 0 0 0 0 0 0 0 0 0 0 0 0 0 0 0 0 0 0 0 0 0 0
0 0 0 0 0 0 0 0 0 0 0 0 0 0 0 0 0 0 0 0 0 0 0 0 0 0 0 0 0 0 0 0 0 0 0 0 0 0 0 0 0 0 0
0 0 0 0 0 0 0 0 0 0 0 0 0 0 0 0 0 0 0 0 0 0 0 0 0 0 0 0 0 0 0 0 0 0 0 0 0 0 0 0 0 0 0
0 0 0 0 0 0 0 0 0 0 0 0 0 0 0 0 0 0 0 0 0 0 0 0 0 0 0 0 0 0 0 0 0 0 0 0 0 0 0 0 0 0 0
0 0 0 0 0 0 0 0 0 0 0 0 0 0 0 0 0 0 0 0 0 0 0 0 0 0 0 0 0 0 0 0 0 0 0 0 0 0 0 0 0 0 0
0 0 0 0 0 0 0 0 0 0 0 0 0 0 0 0 0 0 0 0 0 0 0 0 0 0 0 0 0 0 0 0 0 0 0 0 0 0 0 0 0 0 0
0 0 0 0 0 0 0 0 0 0 0 0 0 0 0 0 0 0 0 0 0 0 0 0 0 0 0 0 0 0 0 0 0 0 0 0 0 0 0 0 0 0 0
0 0 0 0 0 0 0 0 0 0 0 0 0 0 0 0 0 0 0 0 0 0 0 0 0 0 0 0 0 0 0 0 0 0 0 0 0 0 0 0 0 0 0
0 0 0 0 0 0 0 0 0 0 0 0 0 0 0 0 0 0 0 0 0 0 0 0 0 0 0 0 0 0 0 0 0 0 0 0 0 0 0 0 0 0 0
0 0 0 0 0 0 0 0 0 0 0 0 0 0 0 0 0 0 0 0 0 0 0 0 0 0 0 0 0 0 0 0 0 0 0 0 0 0 0 0 0 0 0
0 0 0 0 0 0 0 0 0 0 0 0 0 0 0 0 0 0 0 0 0 0 0 0 0 0 0 0 0 0 0 0 0 0 0 0 0 0 0 0 0 0 0
0 0 0 0 0 0 0 0 0 0 0 0 0 0 0 0 0 0 0 0 0 0 0 0 0 0 0 0 0 0 0 0 0 0 0 0 0 0 0 0 0 0 0
0 0 0 0 0 0 0 0 0 0 0 0 0 0 0 0 0 0 0 0 0 0 0 0 0 0 0 0 0 0 0 0 0 0 0 0 0 0 0 0 0 0 0
0 0 0 0 0 0 0 0 0 0 0 0 0 0 0 0 0 0 0 0 0 0 0 0 0 0 0 0 0 0 0 0 0 0 0 0 0 0 0 0 0 0 0
0 0 0 0 0 0 0 0 0 0 0 0 0 0 0 0 0 0 0 0 0 0 0 0 0 0 0 0 0 0 0 0 0 0 0 0 0 0 0 0 0 0 0
0 0 0 0 0 0 0 0 0 0 0 0 0 0 0 0 0 0 0 0 0 0 0 0 0 0 0 0 0 0 0 0 0 0 0 0 0 0 0 0 0 0 0
0 0 0 0 0 0 0 0 0 0 0 0 0 0 0 0 0 0 0 0 0 0 0 0 0 0 0 0 0 0 0 0 0 0 0 0 0 0 0 0 0 0 0
0 0 0 0 0 0 0 0 0 0 0 0 0 0 0 0 0 0 0 0 0 0 0 0 0 0 0 0 0 0 0 0 0 0 0 0 0 0 0 0 0 0 0
Wind_Speed_500mb
12 11 11 11 11 9 8 5 2 1 2 2 1 1 1 6 7 6 1 5 8 8 7 10 14 17 19 18 22 23 23 26 27 32 29 31 31 30 31 32 34 33 33
22 16 10 11 14 13 13 10 8 6 6 6 7 7 8 8 7 6 5 4 1 4 4 10 8 14 14 14 20 19 21 26 23 28 27 28 28 27 29 28 28 29 30
29 28 20 16 19 19 19 19 17 16 17 15 15 15 15 14 13 12 7 10 11 6 8 8 7 12 13 14 17 19 19 22 22 25 23 25 26 25 25 25 23 24 25
37 39 30 27 28 30 30 26 24 24 23 24 22 24 24 22 21 21 17 17 19 16 17 18 15 17 15 17 17 19 20 21 21 22 22 23 22 23 20 20 19 19 20
45 46 42 39 40 39 37 34 32 31 30 30 32 31 32 33 31 30 30 24 26 27 26 26 26 24 20 23 23 22 24 24 23 22 21 21 20 20 19 17 15 15 17
48 53 52 50 48 46 44 43 43 38 39 36 36 38 40 40 40 38 40 37 35 33 37 33 34 31 28 28 28 27 27 27 27 26 21 19 17 17 15 13 12 11 11
54 54 63 61 61 55 55 52 50 49 48 47 42 45 46 47 50 49 50 49 47 42 43 42 40 39 39 37 37 37 33 30 30 30 29 21 19 16 14 12 10 8 6
62 64 63 72 68 63 66 63 64 59 61 59 54 49 42 53 59 61 61 59 57 54 49 51 48 48 47 49 46 42 37 36 31 29 29 26 21 20 18 14 10 5 3
68 69 70 71 69 73 71 73 73 73 71 69 67 53 23 37 43 46 61 66 65 62 59 60 56 58 55 56 55 53 49 48 41 34 30 28 28 26 23 19 14 9 6
63 63 67 75 70 75 77 76 80 87 84 83 76 72 74 64 43 28 46 51 61 62 64 63 66 63 61 62 65 66 65 62 54 43 36 35 33 31 28 22 19 14 11
63 64 68 72 79 83 85 71 84 81 97 99 89 74 75 85 75 74 53 61 62 60 61 60 68 69 68 70 72 75 73 69 64 64 60 51 45 38 31 28 23 19 18
57 61 78 73 78 79 76 78 80 85 88 93 88 103 94 86 69 83 83 74 72 66 61 61 66 71 74 74 78 79 79 79 75 69 65 54 48 44 39 33 29 26 22
54 57 65 68 72 68 64 67 75 65 86 84 88 103 102 94 86 86 79 79 71 69 70 67 64 72 75 76 83 86 85 84 78 73 73 63 56 50 44 39 35 28 24
45 56 44 49 45 53 59 61 70 71 75 75 80 81 88 92 102 89 95 85 73 75 77 79 79 74 73 77 84 91 90 90 86 78 82 70 65 56 49 43 36 28 30
40 32 44 50 62 64 65 67 66 61 66 66 67 68 70 74 77 79 81 80 80 60 70 80 76 75 76 74 74 90 96 98 90 84 82 71 66 58 53 45 37 29 39
47 51 51 52 53 55 58 60 62 61 66 60 61 60 61 59 65 63 66 67 71 76 77 67 69 68 63 62 63 80 91 90 86 85 80 73 66 63 56 47 40 38 38
27 29 32 35 38 41 45 49 53 56 62 64 65 64 63 61 64 66 68 69 70 71 85 85 84 78 75 73 69 73 78 78 88 77 82 80 71 66 54 51 43 44 50
23 28 29 31 33 35 38 41 45 49 51 55 55 56 57 58 59 63 68 70 71 71 74 80 82 79 78 74 70 69 72 78 88 90 76 81 74 61 61 53 50 52 63
28 29 30 31 33 35 38 39 42 44 47 49 50 53 52 54 60 61 62 62 62 64 68 71 77 79 76 71 69 64 67 80 84 75 81 77 68 74 62 62 61 60 57
34 34 35 36 38 38 39 40 43 45 47 48 48 49 52 54 56 57 59 58 58 60 62 66 72 78 78 76 66 66 72 75 82 73 84 85 74 69 73 71 65 65 50
35 33 35 36 37 38 39 41 44 45 47 46 47 50 53 56 59 60 61 62 62 64 67 69 70 76 77 77 78 74 72 74 78 89 86 81 81 78 77 72 69 61 49
32 34 35 35 36 38 40 41 43 45 48 48 48 50 54 58 59 59 61 64 65 63 65 65 67 74 75 75 72 73 70 70 70 77 78 81 74 80 78 73 71 58 50
25 27 30 33 36 39 43 46 50 51 52 51 49 50 54 55 58 61 62 66 66 65 60 60 59 62 63 62 62 67 65 63 67 65 70 68 74 79 78 69 60 45 56
30 31 33 33 33 35 40 43 47 51 53 52 52 52 57 59 58 61 62 62 61 59 55 55 55 55 54 52 49 53 52 55 54 51 55 66 71 71 67 54 43 48 47
39 40 41 42 43 42 45 45 46 48 50 49 46 46 51 54 52 51 53 51 51 50 45 47 45 40 35 31 30 41 45 39 44 51 54 64 69 62 44 41 44 49 45
42 45 46 47 46 44 46 46 48 50 52 50 46 46 49 52 49 45 46 44 43 41 41 43 40 37 36 38 36 34 35 40 47 52 58 59 54 37 38 43 42 50 51
Wind_Direction_500mb
178 170 175 181 183 186 192 203 185 129 50 25 34 105 261 334 2 24 25 62 79 66 73 111 128 126 126 131 128 130 127 124 116 105 104 102 99 95 92 90 86 81 75
209 198 206 216 217 223 231 245 265 270 254 272 249 232 241 262 282 310 211 245 167 124 149 137 144 139 145 138 138 136 135 124 129 116 109 105 102 99 95 90 86 82 77
222 223 224 241 243 243 246 251 258 266 263 260 254 250 241 250 260 260 243 225 226 267 212 212 198 168 167 163 157 158 154 148 139 132 125 117 109 103 98 94 86 81 75
231 232 231 241 247 251 246 249 251 254 254 253 256 254 253 247 255 257 258 220 224 241 256 245 232 192 196 187 182 182 178 171 157 144 137 132 125 115 113 107 100 91 80
239 239 239 243 244 251 254 253 258 257 256 257 254 253 252 253 251 252 250 252 240 241 249 251 262 250 215 198 200 207 188 187 174 154 158 143 135 137 122 114 106 92 78
243 244 245 244 246 250 253 255 256 260 259 256 257 258 257 257 256 254 251 251 253 248 250 246 258 251 227 211 210 217 213 198 179 180 170 163 157 142 136 137 119 101 82
247 247 249 244 245 249 251 251 250 251 250 252 243 250 254 257 257 256 253 253 255 254 253 256 253 246 237 226 221 217 211 208 195 194 185 176 180 169 160 161 139 129 92
247 249 255 253 247 248 248 250 250 251 248 246 241 243 248 257 258 256 253 253 252 255 257 254 254 245 239 237 222 222 217 204 198 194 189 190 185 193 196 190 180 175 121
248 247 249 254 255 248 252 251 252 250 248 248 246 236 222 239 263 259 255 254 252 256 257 256 252 246 242 238 231 226 224 223 210 203 200 203 199 206 206 208 207 211 217
254 256 258 258 257 258 252 256 254 256 249 246 241 246 247 249 251 264 263 257 250 251 257 255 253 246 244 241 234 231 229 225 228 214 207 209 212 210 215 216 223 234 250
262 258 257 262 260 256 252 262 258 265 252 246 245 250 248 246 251 252 258 259 261 258 260 257 254 250 245 240 236 233 237 236 243 247 250 248 238 226 223 231 240 248 256
262 266 263 264 268 261 258 264 267 263 261 254 266 253 250 249 265 254 252 260 260 268 264 262 257 253 249 240 238 237 236 237 246 254 251 248 239 235 236 240 245 251 263
264 270 267 266 265 266 279 273 267 283 274 265 275 263 255 257 263 261 256 259 263 267 267 265 266 262 253 248 241 238 236 238 239 251 250 248 241 237 238 241 246 253 264
263 264 262 263 266 273 274 275 275 275 270 275 274 272 272 268 263 269 265 264 272 273 274 270 275 272 261 254 244 240 236 238 238 247 249 245 240 237 237 240 243 253 265
259 258 258 266 268 267 269 269 269 272 277 275 276 275 275 274 272 273 272 267 270 264 270 274 273 276 269 261 254 246 240 238 238 242 245 244 238 237 239 239 241 249 259
261 267 269 269 270 270 269 266 264 266 270 273 276 275 275 276 275 277 276 276 272 269 264 277 277 277 271 263 257 250 244 240 233 237 236 243 238 237 238 238 240 252 259
263 266 272 275 276 273 270 269 270 269 269 269 271 273 276 278 281 282 280 278 275 272 271 275 275 274 267 265 263 255 246 237 233 230 234 239 237 237 238 237 243 250 258
277 281 284 286 286 284 281 279 278 276 274 275 279 276 276 275 276 281 280 279 278 277 274 277 276 273 269 268 267 258 246 237 234 229 229 234 235 239 238 235 250 253 268
279 279 279 279 279 282 282 284 282 281 280 278 276 275 275 273 275 278 281 281 282 282 280 277 275 273 269 264 259 255 249 241 239 226 232 234 237 239 237 245 247 252 265
290 290 290 292 289 286 285 282 278 278 277 275 275 274 277 279 281 282 281 282 282 282 281 278 273 272 269 266 259 251 244 236 233 224 227 232 234 236 240 243 247 265 257
286 288 291 290 287 289 285 282 281 279 280 278 275 275 276 279 281 281 282 284 283 282 280 277 272 269 265 259 255 255 244 247 243 231 226 223 228 234 237 241 257 253 264
303 300 299 298 297 294 289 288 285 284 284 282 280 278 278 279 279 280 281 283 280 279 277 275 273 269 269 264 260 255 251 238 232 232 231 225 223 233 237 250 256 255 262
318 319 318 319 317 312 310 308 301 297 293 287 282 279 279 279 281 279 279 279 280 280 275 273 269 268 269 271 268 252 242 242 237 233 222 227 230 236 248 253 256 246 256
318 320 321 319 318 311 310 308 304 301 298 297 296 293 292 291 288 284 284 283 282 280 275 269 269 272 273 270 264 255 247 237 235 235 225 229 240 243 250 251 243 257 255
310 311 310 309 308 306 304 304 300 296 293 291 289 285 284 285 287 287 285 284 282 279 274 266 263 262 257 249 233 227 226 228 235 239 238 232 243 247 243 260 244 255 258
307 304 302 301 301 301 301 303 303 298 297 294 293 295 292 290 291 293 290 287 281 282 277 264 256 254 245 235 236 232 238 237 237 240 244 237 238 239 257 265 266 252 251
Wind_Speed_850mb
12 11 11 11 11 9 8 5 2 1 2 2 1 1 1 6 7 6 1 5 8 8 7 10 14 17 19 18 22 23 23 26 27 32 29 31 31 30 31 32 34 33 33
22 16 10 11 14 13 13 10 8 6 6 6 7 7 8 8 7 6 5 4 1 4 4 10 8 14 14 14 20 19 21 26 23 28 27 28 28 27 29 28 28 29 30
29 28 20 16 19 19 19 19 17 16 17 15 15 15 15 14 13 12 7 10 11 6 8 8 7 12 13 14 17 19 19 22 22 25 23 25 26 25 25 25 23 24 25
37 39 30 27 28 30 30 26 24 24 23 24 22 24 24 22 21 21 17 17 19 16 17 18 15 17 15 17 17 19 20 21 21 22 22 23 22 23 20 20 19 19 20
45 46 42 39 40 39 37 34 32 31 30 30 32 31 32 33 31 30 30 24 26 27 26 26 26 24 20 23 23 22 24 24 23 22 21 21 20 20 19 17 15 15 17
48 53 52 50 48 46 44 43 43 38 39 36 36 38 40 40 40 38 40 37 35 33 37 33 34 31 28 28 28 27 27 27 27 26 21 19 17 17 15 13 12 11 11
54 54 63 61 61 55 55 52 50 49 48 47 42 45 46 47 50 49 50 49 47 42 43 42 40 39 39 37 37 37 33 30 30 30 29 21 19 16 14 12 10 8 6
62 64 63 72 68 63 66 63 64 59 61 59 54 49 42 53 59 61 61 59 57 54 49 51 48 48 47 49 46 42 37 36 31 29 29 26 21 20 18 14 10 5 3
68 69 70 71 69 73 71 73 73 73 71 69 67 53 23 37 43 46 61 66 65 62 59 60 56 58 55 56 55 53 49 48 41 34 30 28 28 26 23 19 14 9 6
63 63 67 75 70 75 77 76 80 87 84 83 76 72 74 64 43 28 46 51 61 62 64 63 66 63 61 62 65 66 65 62 54 43 36 35 33 31 28 22 19 14 11
63 64 68 72 79 83 85 71 84 81 97 99 89 74 75 85 75 74 53 61 62 60 61 60 68 69 68 70 72 75 73 69 64 64 60 51 45 38 31 28 23 19 18
57 61 78 73 78 79 76 78 80 85 88 93 88 103 94 86 69 83 83 74 72 66 61 61 66 71 74 74 78 79 79 79 75 69 65 54 48 44 39 33 29 26 22
54 57 65 68 72 68 64 67 75 65 86 84 88 103 102 94 86 86 79 79 71 69 70 67 64 72 75 76 83 86 85 84 78 73 73 63 56 50 44 39 35 28 24
45 56 44 49 45 53 59 61 70 71 75 75 80 81 88 92 102 89 95 85 73 75 77 79 79 74 73 77 84 91 90 90 86 78 82 70 65 56 49 43 36 28 30
40 32 44 50 62 64 65 67 66 61 66 66 67 68 70 74 77 79 81 80 80 60 70 80 76 75 76 74 74 90 96 98 90 84 82 71 66 58 53 45 37 29 39
47 51 51 52 53 55 58 60 62 61 66 60 61 60 61 59 65 63 66 67 71 76 77 67 69 68 63 62 63 80 91 90 86 85 80 73 66 63 56 47 40 38 38
27 29 32 35 38 41 45 49 53 56 62 64 65 64 63 61 64 66 68 69 70 71 85 85 84 78 75 73 69 73 78 78 88 77 82 80 71 66 54 51 43 44 50
23 28 29 31 33 35 38 41 45 49 51 55 55 56 57 58 59 63 68 70 71 71 74 80 82 79 78 74 70 69 72 78 88 90 76 81 74 61 61 53 50 52 63
28 29 30 31 33 35 38 39 42 44 47 49 50 53 52 54 60 61 62 62 62 64 68 71 77 79 76 71 69 64 67 80 84 75 81 77 68 74 62 62 61 60 57
34 34 35 36 38 38 39 40 43 45 47 48 48 49 52 54 56 57 59 58 58 60 62 66 72 78 78 76 66 66 72 75 82 73 84 85 74 69 73 71 65 65 50
35 33 35 36 37 38 39 41 44 45 47 46 47 50 53 56 59 60 61 62 62 64 67 69 70 76 77 77 78 74 72 74 78 89 86 81 81 78 77 72 69 61 49
32 34 35 35 36 38 40 41 43 45 48 48 48 50 54 58 59 59 61 64 65 63 65 65 67 74 75 75 72 73 70 70 70 77 78 81 74 80 78 73 71 58 50
25 27 30 33 36 39 43 46 50 51 52 51 49 50 54 55 58 61 62 66 66 65 60 60 59 62 63 62 62 67 65 63 67 65 70 68 74 79 78 69 60 45 56
30 31 33 33 33 35 40 43 47 51 53 52 52 52 57 59 58 61 62 62 61 59 55 55 55 55 54 52 49 53 52 55 54 51 55 66 71 71 67 54 43 48 47
39 40 41 42 43 42 45 45 46 48 50 49 46 46 51 54 52 51 53 51 51 50 45 47 45 40 35 31 30 41 45 39 44 51 54 64 69 62 44 41 44 49 45
42 45 46 47 46 44 46 46 48 50 52 50 46 46 49 52 49 45 46 44 43 41 41 43 40 37 36 38 36 34 35 40 47 52 58 59 54 37 38 43 42 50 51
Wind_Direction_850mb
178 170 175 181 183 186 192 203 185 129 50 25 34 105 261 334 2 24 25 62 79 66 73 111 128 126 126 131 128 130 127 124 116 105 104 102 99 95 92 90 86 81 75
209 198 206 216 217 223 231 245 265 270 254 272 249 232 241 262 282 310 211 245 167 124 149 137 144 139 145 138 138 136 135 124 129 116 109 105 102 99 95 90 86 82 77
222 223 224 241 243 243 246 251 258 266 263 260 254 250 241 250 260 260 243 225 226 267 212 212 198 168 167 163 157 158 154 148 139 132 125 117 109 103 98 94 86 81 75
231 232 231 241 247 251 246 249 251 254 254 253 256 254 253 247 255 257 258 220 224 241 256 245 232 192 196 187 182 182 178 171 157 144 137 132 125 115 113 107 100 91 80
239 239 239 243 244 251 254 253 258 257 256 257 254 253 252 253 251 252 250 252 240 241 249 251 262 250 215 198 200 207 188 187 174 154 158 143 135 137 122 114 106 92 78
243 244 245 244 246 250 253 255 256 260 259 256 257 258 257 257 256 254 251 251 253 248 250 246 258 251 227 211 210 217 213 198 179 180 170 163 157 142 136 137 119 101 82
247 247 249 244 245 249 251 251 250 251 250 252 243 250 254 257 257 256 253 253 255 254 253 256 253 246 237 226 221 217 211 208 195 194 185 176 180 169 160 161 139 129 92
247 249 255 253 247 248 248 250 250 251 248 246 241 243 248 257 258 256 253 253 252 255 257 254 254 245 239 237 222 222 217 204 198 194 189 190 185 193 196 190 180 175 121
248 247 249 254 255 248 252 251 252 250 248 248 246 236 222 239 263 259 255 254 252 256 257 256 252 246 242 238 231 226 224 223 210 203 200 203 199 206 206 208 207 211 217
254 256 258 258 257 258 252 256 254 256 249 246 241 246 247 249 251 264 263 257 250 251 257 255 253 246 244 241 234 231 229 225 228 214 207 209 212 210 215 216 223 234 250
262 258 257 262 260 256 252 262 258 265 252 246 245 250 248 246 251 252 258 259 261 258 260 257 254 250 245 240 236 233 237 236 243 247 250 248 238 226 223 231 240 248 256
262 266 263 264 268 261 258 264 267 263 261 254 266 253 250 249 265 254 252 260 260 268 264 262 257 253 249 240 238 237 236 237 246 254 251 248 239 235 236 240 245 251 263
264 270 267 266 265 266 279 273 267 283 274 265 275 263 255 257 263 261 256 259 263 267 267 265 266 262 253 248 241 238 236 238 239 251 250 248 241 237 238 241 246 253 264
263 264 262 263 266 273 274 275 275 275 270 275 274 272 272 268 263 269 265 264 272 273 274 270 275 272 261 254 244 240 236 238 238 247 249 245 240 237 237 240 243 253 265
259 258 258 266 268 267 269 269 269 272 277 275 276 275 275 274 272 273 272 267 270 264 270 274 273 276 269 261 254 246 240 238 238 242 245 244 238 237 239 239 241 249 259
261 267 269 269 270 270 269 266 264 266 270 273 276 275 275 276 275 277 276 276 272 269 264 277 277 277 271 263 257 250 244 240 233 237 236 243 238 237 238 238 240 252 259
263 266 272 275 276 273 270 269 270 269 269 269 271 273 276 278 281 282 280 278 275 272 271 275 275 274 267 265 263 255 246 237 233 230 234 239 237 237 238 237 243 250 258
277 281 284 286 286 284 281 279 278 276 274 275 279 276 276 275 276 281 280 279 278 277 274 277 276 273 269 268 267 258 246 237 234 229 229 234 235 239 238 235 250 253 268
279 279 279 279 279 282 282 284 282 281 280 278 276 275 275 273 275 278 281 281 282 282 280 277 275 273 269 264 259 255 249 241 239 226 232 234 237 239 237 245 247 252 265
290 290 290 292 289 286 285 282 278 278 277 275 275 274 277 279 281 282 281 282 282 282 281 278 273 272 269 266 259 251 244 236 233 224 227 232 234 236 240 243 247 265 257
286 288 291 290 287 289 285 282 281 279 280 278 275 275 276 279 281 281 282 284 283 282 280 277 272 269 265 259 255 255 244 247 243 231 226 223 228 234 237 241 257 253 264
303 300 299 298 297 294 289 288 285 284 284 282 280 278 278 279 279 280 281 283 280 279 277 275 273 269 269 264 260 255 251 238 232 232 231 225 223 233 237 250 256 255 262
318 319 318 319 317 312 310 308 301 297 293 287 282 279 279 279 281 279 279 279 280 280 275 273 269 268 269 271 268 252 242 242 237 233 222 227 230 236 248 253 256 246 256
318 320 321 319 318 311 310 308 304 301 298 297 296 293 292 291 288 284 284 283 282 280 275 269 269 272 273 270 264 255 247 237 235 235 225 229 240 243 250 251 243 257 255
310 311 310 309 308 306 304 304 300 296 293 291 289 285 284 285 287 287 285 284 282 279 274 266 263 262 257 249 233 227 226 228 235 239 238 232 243 247 243 260 244 255 258
307 304 302 301 301 301 301 303 303 298 297 294 293 295 292 290 291 293 290 287 281 282 277 264 256 254 245 235 236 232 238 237 237 240 244 237 238 239 257 265 266 252 251